Location: ????
(33.1659°N, 35.6604°E)
Time: 20:08:49
(UTC+00:00)

GEOS 3 Rocket - Pass Details

Date: 20 September 2019
Orbit: 790 x 829 km, 115.0° (Epoch: 16 October)

Event Time Altitude Azimuth Distance (km) Brightness Sun altitude
Exits shadow 16:56:06 29° 98° (E) 1,419 4.3 -17.1°
Maximum altitude 16:58:04 41° 52° (NE) 1,134 4.1 -17.5°
Drops below altitude 10° 17:02:49 10° 343° (NNW) 2,359 6.4 -18.5°
Sets 17:05:13 0° 336° (NNW) 3,293 7.3 -19.0°
